STARLINK-1392 (45677 NORAD) Tracking and Keplerian Element Data

This shows tracking and keplerian element data for the satellite.

Feedback or suggestion? Click here.




ElementValue
Catalog45677
NameSTARLINK-1392
Epoch Orbit655
Epoch Day192.16668981
Epoch Year2020
RAAN353.653
Inclination53.0017
Eccentricity0.0001374
Argument of Perigee101.37
Mean Anonmoly48.3674
Mean Motion15.31251605
Decay Rate-0.01070874
L11 45677U 20035W 20192.16668981 -.01070874 00000-0 -38161-1 0 9997
L22 45677 53.0017 353.6530 0001374 101.3700 48.3674 15.31251605 6556

Live tracking and technical data element details for STARLINK-1392 (NORAD 45677). STARLINK-1392 can be tracked NOW for your location showing map with azimuth and elevation plus other details from your city location.

Track the satellite on the map from your city or location and see movement details for azimuth, elevation, latitude, longitude, range, height, and movement on the map or in text.







IsCatalogInMostPopularTable: catalog: 45677, numindb: 7
Update: records affected: 1



GetName: 45677 STARLINK-1392

Hit Count: updated at: Fri, 10 Jul 2020 16:31:00 GMT